2021-013B

Last updated on Thu Feb 25 2021 00:02:13 GMT+0000 (Coordinated Universal Time)

1 47690U 21013B 21055.56617420 .01439727 11646-4 55011-3 0 9997 2 47690 51.6315 178.1887 0089110 155.4420 205.0933 16.13892962 615

Satellite not in orbit